Temperature
15 15 15 15 15 15 15 15 15 15 15 15 15 15 15 15 15 15 15 15 15 15 15 15 15 15 15 15 15 15 15 16 16 15 15 15 15 16 16 16 16 16 16
15 15 15 15 15 15 15 15 15 15 15 15 15 15 15 15 15 14 14 15 15 15 15 15 15 15 15 15 15 15 15 15 15 15 15 15 15 15 15 15 16 16 16
15 15 15 15 15 15 15 15 15 15 15 15 15 15 15 15 15 14 14 14 14 14 15 15 15 15 14 15 15 15 15 15 15 15 15 15 15 15 15 15 15 16 16
15 15 15 15 15 15 15 15 15 15 15 15 15 14 14 14 14 14 14 14 14 14 14 14 14 14 14 14 14 14 15 15 15 15 15 15 15 15 15 15 15 15 15
15 15 15 15 15 15 15 15 15 15 15 14 14 14 14 14 14 14 14 14 14 14 14 14 14 14 14 14 14 14 14 14 14 14 15 15 15 15 15 15 15 15 15
15 15 15 15 15 15 15 15 15 15 14 14 14 14 14 14 14 14 14 14 14 14 14 14 14 14 14 14 14 14 14 14 14 14 14 14 14 15 15 15 15 15 15
15 15 15 15 15 15 15 15 15 14 14 14 14 14 14 14 14 14 14 14 14 14 14 14 14 13 13 14 14 14 14 14 14 14 14 14 14 14 14 14 14 15 15
15 15 15 15 15 15 15 14 14 14 14 14 15 15 15 14 14 14 14 14 14 14 14 14 13 13 13 13 13 13 14 14 14 14 14 14 14 14 14 14 14 14 14
15 15 15 15 15 15 15 14 14 14 14 14 14 15 15 16 14 13 13 13 13 13 13 13 13 13 13 13 13 13 13 14 14 14 14 14 14 14 14 14 14 14 14
15 15 15 15 14 15 14 14 14 14 14 14 14 15 15 15 15 14 14 13 13 13 13 13 13 13 13 13 13 13 13 13 13 13 13 13 13 13 13 13 13 13 13
15 15 15 15 15 14 14 14 14 14 14 14 14 14 14 15 15 15 14 14 13 13 13 13 13 13 13 13 13 13 13 13 13 13 13 13 13 13 13 13 13 13 13
15 15 15 14 14 14 14 14 14 14 14 14 14 14 14 15 15 15 15 14 14 13 13 13 13 13 13 13 13 13 13 13 13 13 13 13 13 13 13 13 13 13 13
15 15 15 15 15 14 14 14 14 14 14 14 14 14 14 14 14 15 15 14 14 13 13 13 13 13 13 13 13 13 13 13 13 13 13 13 13 13 13 13 12 12 12
15 15 15 15 15 15 15 14 14 14 14 14 14 14 14 14 14 14 14 15 14 14 13 13 12 13 12 12 13 13 13 13 13 13 13 13 13 13 12 12 12 12 12
15 15 15 15 15 15 15 15 15 14 14 14 14 14 14 14 14 14 14 14 15 15 14 13 12 12 12 12 12 12 12 12 12 12 12 12 12 12 12 12 12 12 12
15 15 15 15 15 15 15 15 15 15 14 15 15 14 14 14 14 14 14 14 14 14 14 13 12 12 12 12 12 12 12 12 12 12 12 12 12 12 12 12 12 12 11
15 15 15 15 15 15 15 15 15 14 14 14 14 14 14 14 14 14 14 14 14 14 13 13 12 12 12 12 12 12 12 12 12 12 12 12 12 12 12 11 11 11 11
15 15 15 15 15 15 15 15 15 14 14 14 14 14 14 14 14 14 14 14 14 13 13 13 12 12 12 12 12 12 11 11 11 11 11 11 11 11 11 11 11 11 11
15 15 15 15 15 15 15 15 15 14 14 14 14 14 14 14 14 14 14 13 13 13 13 13 12 12 12 12 12 11 11 11 11 11 11 11 11 11 11 11 10 10 10
15 15 15 15 15 15 15 15 15 14 14 14 14 14 14 14 13 13 13 13 13 13 13 12 12 12 12 12 11 11 11 11 10 10 10 10 10 10 10 10 10 10 10
15 15 15 15 15 15 15 14 14 14 14 14 14 14 14 14 14 13 13 13 13 13 13 12 12 12 11 11 11 11 11 10 10 10 10 9 9 9 9 9 9 9 9
15 15 15 15 15 15 15 15 14 14 14 14 14 14 14 14 14 13 13 13 13 13 12 12 12 12 11 11 11 11 10 10 10 10 9 9 9 9 9 9 9 9 9
15 15 15 15 15 15 15 14 14 14 14 14 14 14 14 13 13 13 13 13 13 13 13 12 12 11 11 11 11 10 10 10 10 10 9 9 9 8 8 8 9 8 8
15 15 15 14 14 14 14 14 14 14 14 14 14 13 13 13 13 13 13 13 12 12 12 12 12 11 11 11 11 11 10 10 10 10 9 8 8 8 8 8 8 8 8
14 14 14 14 14 14 14 14 14 14 14 14 13 13 13 13 13 13 12 12 12 12 12 12 12 11 11 11 11 11 10 10 9 9 9 8 8 7 7 7 7 7 7
14 14 14 14 14 14 14 14 14 13 13 13 13 13 13 13 13 13 12 12 12 11 11 11 11 11 11 11 11 10 10 9 9 8 8 8 7 7 7 7 7 6 6
Wind_Speed
4 4 5 5 5 6 5 5 6 7 7 8 8 9 9 10 10 9 11 15 16 15 15 15 14 14 14 14 14 14 14 14 13 13 13 13 13 12 12 11 11 10 9
4 4 4 4 5 5 6 6 7 6 7 7 8 9 9 9 10 9 9 11 15 16 16 15 15 14 14 15 15 14 14 13 13 14 13 13 13 12 12 12 11 10 10
4 4 4 4 5 6 6 6 6 6 6 6 7 8 8 9 9 9 9 8 10 14 16 16 16 16 16 15 15 15 14 14 13 14 14 14 14 13 12 12 12 12 11
4 4 4 4 5 5 5 4 5 5 6 6 6 6 6 7 8 9 9 9 9 9 12 15 16 16 16 16 16 16 15 15 15 14 14 14 14 14 14 13 13 12 12
4 4 3 3 4 4 3 4 4 4 5 5 5 5 6 6 6 7 8 9 9 9 9 10 12 15 16 17 17 17 16 16 15 14 13 14 14 15 15 15 15 14 12
3 4 3 3 3 3 3 3 5 4 4 4 5 5 5 5 5 6 6 7 8 9 9 9 9 11 14 17 17 17 17 17 17 15 14 15 15 16 16 17 17 16 15
3 4 3 3 3 3 4 4 4 5 4 3 3 4 5 5 6 5 5 5 7 8 9 9 9 8 9 13 17 17 18 18 18 17 16 16 17 17 18 18 18 17 16
3 3 4 3 3 3 4 4 4 3 3 1 0 1 2 3 4 5 4 5 6 7 8 9 9 9 9 9 14 17 17 18 19 19 19 18 18 18 18 19 19 19 17
3 3 4 3 3 3 4 3 3 2 1 1 1 2 1 1 3 4 5 5 6 6 7 8 9 10 10 10 11 14 16 17 17 18 18 18 18 18 18 18 19 19 19
3 3 3 3 3 3 3 3 2 1 1 1 1 1 2 1 0 2 3 5 6 6 6 6 8 9 10 10 11 14 15 15 16 17 17 18 18 18 18 18 18 19 20
3 4 4 4 3 3 3 2 2 1 1 0 0 1 1 1 1 1 3 3 4 5 6 6 6 8 9 10 11 14 15 15 15 16 16 16 17 17 17 17 18 18 19
3 4 4 4 4 3 3 3 2 2 1 1 0 0 0 0 1 1 2 3 3 4 5 5 6 6 7 9 11 13 14 14 15 15 15 16 16 16 16 17 17 18 18
3 4 4 3 3 3 3 3 2 2 2 1 0 1 1 1 0 1 2 3 3 3 3 4 5 6 6 7 8 9 12 13 14 14 15 15 16 16 17 16 17 17 17
3 4 4 4 3 3 3 3 2 2 1 1 1 1 1 1 0 1 1 2 2 3 3 4 4 5 6 6 8 7 11 13 13 14 14 15 16 16 16 16 17 17 17
3 4 4 4 4 3 3 3 2 2 1 1 1 1 1 1 1 1 1 0 1 1 3 3 3 4 4 6 6 7 9 12 12 13 13 14 15 15 16 16 16 16 16
4 4 5 5 5 4 4 3 2 1 2 2 1 2 2 2 2 1 1 0 1 1 2 3 3 4 4 4 6 7 9 11 13 12 12 13 13 14 14 15 15 15 15
5 5 4 5 5 5 4 4 3 2 2 3 3 3 3 2 2 2 2 2 2 2 3 4 3 4 4 4 5 5 6 7 10 12 12 12 12 13 13 14 14 14 15
5 5 5 5 5 4 4 4 4 3 2 2 3 3 3 3 3 3 2 2 2 2 2 4 4 3 3 4 3 4 4 6 7 11 11 11 12 12 12 12 13 13 14
6 6 6 5 5 5 5 4 4 4 3 3 3 3 3 3 3 3 3 3 3 3 3 3 4 3 2 3 3 3 4 4 5 6 8 9 10 10 11 11 11 12 12
6 6 6 5 5 5 5 5 5 4 4 4 4 3 3 3 3 3 3 3 3 3 3 3 3 3 2 2 1 2 2 2 2 3 4 5 6 7 9 10 10 10 10
7 6 6 6 5 4 4 5 5 4 4 5 4 4 4 5 6 3 2 3 3 3 3 3 2 2 2 1 1 1 1 1 2 3 2 3 3 4 5 6 8 8 8
7 7 7 6 5 4 4 2 3 5 5 5 5 5 5 5 6 5 6 5 3 2 2 3 2 2 1 1 1 0 0 0 1 2 2 2 2 2 4 5 7 7 8
7 7 6 6 5 5 7 6 4 3 4 4 4 4 4 4 5 5 6 6 4 3 2 1 2 1 1 1 0 0 0 1 1 2 2 1 2 2 2 5 7 6 7
7 7 7 6 6 6 8 7 6 5 4 4 4 4 4 4 4 4 5 4 3 3 2 1 2 2 2 2 0 1 0 0 1 2 2 2 2 2 1 3 6 5 5
7 7 7 7 6 7 9 8 7 5 4 4 3 3 4 4 5 4 4 4 4 4 5 5 6 6 7 6 3 0 0 1 0 1 1 2 2 2 1 0 3 3 3
6 6 6 6 7 6 9 8 7 5 5 4 4 4 3 3 6 5 5 4 4 4 4 5 4 4 3 4 2 1 1 1 1 1 2 2 2 2 2 1 2 2 2
Wind_Direction
93 96 94 91 85 90 96 92 91 85 83 79 73 69 68 66 63 64 70 59 50 48 50 51 50 49 48 44 41 37 33 30 31 32 32 31 29 29 29 29 30 32 34
102 105 104 97 93 89 86 89 93 93 85 78 73 70 65 67 64 62 64 69 61 50 45 45 45 46 45 43 41 36 32 30 33 34 35 32 30 31 32 34 34 34 35
106 108 98 101 104 102 105 98 97 96 94 89 78 70 67 63 63 60 59 55 63 63 51 45 44 43 43 42 40 37 34 34 36 37 37 36 34 34 35 37 38 37 37
102 95 95 105 107 109 110 106 104 105 98 89 80 69 68 67 63 58 59 59 52 54 60 52 46 42 40 40 39 39 38 37 38 39 39 38 38 38 39 40 41 39 39
120 112 102 111 117 117 117 117 108 102 97 92 92 81 68 64 61 58 58 56 56 52 55 64 58 47 40 38 37 37 38 37 36 37 41 43 43 42 41 42 41 40 42
128 126 135 136 127 128 125 124 111 104 99 98 92 84 73 71 66 58 56 57 53 51 49 47 54 60 51 42 37 37 38 36 36 39 46 50 49 47 46 45 43 43 48
141 141 149 139 146 141 136 132 125 124 119 115 112 105 97 80 70 64 55 53 58 54 54 52 47 44 56 55 42 37 37 38 40 45 52 55 53 51 49 47 45 46 51
156 150 155 162 158 143 140 133 137 135 126 156 196 148 139 121 79 65 64 54 54 58 53 52 51 49 45 50 52 41 37 39 43 49 54 55 54 53 51 49 47 49 53
165 164 163 167 160 159 150 157 161 154 157 163 335 326 326 89 105 86 66 63 59 54 54 51 51 52 52 51 50 47 39 40 44 49 52 54 54 54 52 50 50 50 55
159 164 162 163 163 153 150 164 164 165 179 175 94 1 0 33 164 122 98 75 64 55 50 52 52 52 52 54 54 47 43 42 45 47 49 51 52 52 52 52 51 51 53
155 155 156 159 163 152 147 146 149 171 175 300 54 120 100 95 323 93 107 99 86 66 55 52 54 53 52 53 49 48 45 46 47 48 48 48 49 50 50 52 52 53 52
154 152 155 159 162 158 154 155 150 148 120 76 60 118 153 51 102 98 109 118 101 79 67 59 55 55 54 55 54 49 48 48 50 50 50 50 49 49 50 52 53 53 54
155 156 161 168 163 159 159 159 160 150 139 138 117 62 37 22 26 112 120 116 112 104 86 76 61 59 56 57 58 52 57 53 52 52 52 52 50 50 50 51 53 54 53
158 156 159 169 163 165 166 167 178 156 150 134 93 85 102 91 138 143 115 135 134 121 101 86 74 61 60 60 59 56 63 59 57 56 55 55 53 52 51 52 51 51 51
161 161 166 167 166 170 172 163 169 150 138 111 103 103 109 110 134 109 128 266 305 134 111 91 78 62 65 65 50 63 65 64 61 60 59 58 57 55 53 53 52 50 49
170 171 174 173 161 164 166 158 154 136 141 113 98 101 99 109 100 105 120 100 349 30 99 97 89 79 63 70 66 70 75 76 64 60 60 59 59 57 55 53 51 50 48
174 176 176 171 167 165 161 153 154 150 157 141 135 123 111 102 114 107 103 92 77 83 113 108 97 90 81 72 76 75 75 73 71 63 60 61 61 59 56 55 53 51 49
176 179 174 173 169 164 158 152 153 157 151 143 134 127 124 125 118 106 101 97 90 89 122 118 111 95 77 73 69 74 79 76 75 72 67 65 64 59 56 55 53 52 50
178 180 176 173 168 164 159 157 155 150 141 133 127 125 131 136 132 115 109 104 101 101 104 123 112 99 90 81 81 79 85 80 78 89 83 77 69 63 57 53 50 48 47
181 180 178 175 170 165 164 160 155 148 138 129 126 122 121 127 127 124 123 116 114 114 112 119 118 116 100 82 93 88 91 92 70 63 77 87 87 82 68 56 48 44 42
181 179 178 177 170 168 168 169 162 154 148 138 132 124 109 86 58 65 89 117 127 131 129 124 119 112 97 82 52 41 85 85 80 33 42 63 72 61 71 64 45 37 36
178 176 180 176 167 163 131 146 184 166 160 152 147 139 130 126 112 98 76 65 58 114 131 133 129 128 103 80 44 347 26 317 72 38 353 45 46 43 51 47 47 41 34
174 175 178 172 170 153 143 159 189 180 172 165 160 151 141 141 152 144 134 133 103 58 22 86 118 91 75 52 342 225 353 358 26 37 350 15 31 31 52 65 60 44 35
175 177 176 170 167 157 150 160 176 182 171 168 168 164 164 162 160 159 147 138 126 113 112 116 91 65 44 34 4 327 331 74 88 69 1 344 4 353 22 70 75 51 40
177 178 174 176 178 170 159 167 183 175 173 170 167 166 175 172 134 165 167 156 144 128 98 85 68 74 64 49 22 89 137 222 327 97 32 332 344 329 303 61 84 83 61
176 176 174 182 184 182 159 170 199 184 183 176 165 159 139 158 144 180 188 180 173 160 151 139 128 128 109 93 72 30 346 314 328 29 26 323 332 327 309 8 15 12 16
Height
1551 1551 1551 1551 1552 1552 1552 1552 1552 1552 1552 1552 1552 1552 1552 1551 1551 1550 1549 1548 1547 1546 1544 1543 1541 1540 1538 1536 1535 1533 1531 1529 1527 1524 1522 1520 1518 1516 1514 1511 1509 1506 1505
1552 1552 1553 1553 1553 1553 1553 1553 1553 1553 1553 1553 1553 1553 1553 1553 1552 1551 1551 1550 1548 1547 1546 1544 1543 1541 1539 1537 1535 1533 1531 1529 1527 1525 1523 1520 1518 1516 1514 1512 1510 1508 1506
1553 1553 1554 1554 1554 1554 1555 1555 1555 1555 1554 1555 1555 1555 1554 1554 1553 1553 1552 1551 1550 1549 1547 1546 1544 1542 1540 1538 1536 1534 1532 1529 1527 1525 1523 1521 1518 1517 1515 1513 1511 1508 1506
1554 1554 1554 1555 1555 1556 1556 1556 1556 1556 1556 1556 1556 1556 1556 1555 1555 1554 1554 1553 1552 1551 1549 1547 1546 1544 1542 1540 1537 1535 1532 1530 1527 1525 1523 1521 1519 1517 1515 1513 1511 1508 1506
1555 1555 1555 1556 1556 1556 1557 1557 1557 1557 1557 1557 1557 1557 1557 1557 1556 1556 1555 1554 1553 1552 1551 1549 1547 1545 1543 1541 1539 1536 1533 1530 1527 1524 1522 1521 1520 1518 1516 1513 1511 1508 1506
1555 1556 1556 1557 1557 1557 1558 1558 1558 1558 1558 1559 1559 1559 1559 1558 1558 1557 1557 1556 1555 1554 1553 1551 1550 1547 1545 1543 1540 1537 1534 1531 1526 1522 1520 1520 1520 1519 1517 1514 1511 1508 1505
1556 1556 1557 1557 1558 1558 1559 1559 1559 1559 1560 1560 1561 1561 1560 1560 1559 1558 1558 1558 1557 1555 1554 1553 1551 1549 1548 1545 1542 1539 1536 1533 1527 1521 1520 1520 1521 1521 1519 1516 1513 1509 1506
1556 1557 1557 1558 1558 1558 1559 1560 1560 1560 1560 1560 1561 1562 1562 1563 1561 1560 1559 1559 1558 1557 1556 1555 1553 1551 1549 1547 1544 1542 1539 1535 1531 1527 1525 1525 1524 1523 1521 1519 1516 1512 1509
1555 1556 1557 1558 1558 1559 1560 1560 1560 1560 1561 1561 1561 1562 1562 1562 1562 1562 1561 1560 1559 1558 1558 1557 1555 1553 1552 1550 1547 1545 1542 1540 1537 1534 1532 1530 1528 1527 1525 1522 1520 1516 1513
1555 1556 1557 1558 1558 1559 1559 1560 1560 1561 1561 1561 1561 1561 1562 1562 1562 1563 1563 1562 1561 1560 1559 1558 1557 1556 1554 1552 1550 1548 1546 1543 1541 1539 1536 1535 1533 1530 1528 1527 1524 1521 1519
1555 1555 1556 1557 1558 1559 1559 1560 1560 1561 1561 1561 1562 1562 1561 1561 1562 1562 1563 1564 1563 1562 1561 1560 1559 1557 1556 1554 1553 1551 1549 1546 1544 1542 1540 1539 1537 1535 1533 1530 1528 1526 1525
1554 1555 1556 1557 1558 1559 1559 1560 1560 1561 1561 1561 1562 1562 1562 1563 1563 1563 1563 1563 1564 1564 1562 1561 1560 1559 1558 1557 1555 1553 1551 1549 1547 1545 1544 1542 1540 1538 1536 1534 1532 1530 1529
1554 1555 1556 1557 1558 1559 1560 1560 1560 1561 1561 1561 1562 1562 1562 1562 1563 1563 1563 1564 1564 1564 1563 1563 1562 1560 1559 1559 1557 1556 1554 1552 1550 1548 1547 1545 1543 1541 1539 1537 1536 1534 1532
1554 1555 1556 1557 1558 1559 1560 1560 1561 1561 1561 1562 1561 1561 1562 1562 1562 1563 1564 1564 1564 1565 1565 1565 1563 1562 1561 1560 1559 1558 1556 1555 1553 1551 1549 1547 1546 1544 1542 1540 1538 1536 1535
1554 1555 1556 1557 1558 1559 1560 1560 1560 1561 1561 1561 1561 1561 1562 1562 1562 1563 1563 1564 1565 1565 1565 1565 1564 1563 1562 1561 1560 1560 1558 1557 1555 1554 1552 1550 1548 1546 1544 1542 1541 1539 1537
1553 1555 1556 1557 1558 1559 1559 1560 1560 1561 1561 1561 1561 1561 1561 1562 1562 1562 1563 1563 1564 1565 1565 1565 1564 1564 1563 1563 1561 1561 1559 1558 1557 1555 1554 1552 1550 1548 1546 1545 1543 1541 1539
1553 1554 1555 1557 1558 1559 1559 1559 1560 1560 1561 1561 1561 1562 1562 1562 1562 1563 1563 1563 1563 1564 1565 1565 1565 1564 1564 1563 1563 1562 1561 1560 1558 1557 1555 1553 1552 1550 1548 1546 1544 1543 1541
1552 1554 1555 1556 1557 1558 1559 1559 1560 1560 1561 1561 1562 1562 1562 1562 1562 1563 1563 1564 1564 1564 1565 1565 1565 1565 1564 1564 1563 1562 1562 1561 1559 1558 1556 1555 1553 1551 1549 1548 1546 1544 1542
1551 1553 1554 1555 1557 1557 1558 1559 1560 1560 1561 1561 1562 1562 1562 1563 1563 1563 1563 1564 1564 1564 1564 1565 1565 1565 1565 1564 1563 1563 1562 1562 1561 1559 1557 1556 1554 1552 1550 1549 1547 1545 1543
1549 1551 1553 1554 1556 1557 1558 1559 1560 1560 1561 1561 1562 1562 1563 1563 1563 1564 1564 1564 1564 1564 1564 1565 1565 1565 1565 1564 1564 1563 1563 1562 1561 1560 1558 1556 1554 1553 1551 1549 1547 1545 1543
1548 1550 1552 1553 1555 1556 1557 1559 1560 1560 1561 1561 1562 1562 1562 1563 1563 1563 1564 1564 1564 1564 1564 1565 1565 1565 1565 1564 1564 1563 1563 1562 1561 1559 1559 1557 1556 1554 1552 1549 1547 1545 1543
1547 1548 1550 1552 1554 1555 1556 1557 1559 1560 1561 1561 1562 1562 1562 1562 1563 1563 1563 1563 1564 1564 1565 1565 1565 1565 1564 1564 1563 1563 1563 1562 1561 1560 1559 1558 1556 1554 1552 1549 1547 1545 1543
1545 1547 1549 1551 1552 1554 1555 1557 1558 1559 1560 1561 1562 1562 1562 1562 1563 1563 1563 1563 1563 1564 1564 1564 1564 1564 1564 1563 1562 1562 1561 1561 1560 1559 1557 1557 1555 1554 1552 1549 1547 1545 1543
1543 1545 1547 1549 1551 1552 1554 1555 1557 1558 1559 1560 1561 1561 1562 1562 1562 1563 1563 1563 1563 1563 1563 1563 1563 1563 1562 1562 1561 1561 1560 1560 1559 1557 1556 1556 1555 1553 1551 1549 1546 1544 1542
1541 1543 1545 1547 1549 1551 1552 1554 1555 1557 1558 1559 1559 1560 1561 1561 1561 1562 1562 1562 1562 1562 1562 1562 1562 1561 1561 1560 1560 1560 1559 1559 1559 1557 1555 1555 1553 1552 1550 1548 1545 1543 1540
1539 1541 1543 1545 1547 1549 1551 1552 1554 1555 1556 1557 1558 1558 1559 1560 1560 1560 1561 1561 1561 1561 1561 1561 1561 1560 1560 1559 1559 1558 1558 1558 1557 1557 1554 1553 1552 1550 1549 1547 1545 1542 1540